Marion Regional, IL

8:17 PM CDT on July 20, 2017 (GMT -0500)
Williamson County Regional

Weather History for KMWA - March, 2014

Change the Weather History Date:

Thursday, March 13, 2014

  Actual Average Record
Temperature  
Mean Temperature 40 °F -  
Max Temperature 53 °F 53 °F 78 °F (2012)
Min Temperature 26 °F 33 °F 16 °F (1992)
Degree Days  
Heating Degree Days 26    
Moisture  
Dew Point 28 °F    
Average Humidity 65    
Maximum Humidity 93    
Minimum Humidity 44    
Precipitation  
Precipitation 0.00 in - - ()
Sea Level Pressure  
Sea Level Pressure 30.12 in    
Wind  
Wind Speed 4 mph (South)    
Max Wind Speed 17 mph    
Max Gust Speed 22 mph    
Visibility 12 miles    
Events      
Averages and records for this station are not official NWS values.
T = Trace of Precipitation, MM = Missing Value Source: NWS Daily Summary

Daily Weather History Graph

Daily Weather History Graph

Search for Another Location

Airport or City:

Trip Planner

Search our weather history database for the weather conditions in past years. The results will help you decide how hot, cold, wet, or windy it might be!

Date:

Astronomy

Mar. 13, 2014 Rise Set
Actual Time 7:10 AM CDT 7:01 PM CDT
Civil Twilight 6:43 AM CDT 7:27 PM CDT
Nautical Twilight 6:13 AM CDT 7:57 PM CDT
Astronomical Twilight 5:42 AM CDT 8:28 PM CDT
Moon 4:29 PM CDT (3/13) 5:14 AM CDT (3/13)
Length of Visible Light 12h 43m
Length of Day
11h 51m
Waxing Gibbous, 91% of the Moon is Illuminated
Mar 13
Waxing Gibbous
Mar 16
Full
Mar 23
Last Quarter
Mar 30
New
Apr 7
First Quarter

Hourly Weather History & Observations

Time (CDT) Temp. Windchill Dew Point Humidity Pressure Visibility Wind Dir Wind Speed Gust Speed Precip Events Conditions
12:15 AM 32.0 °F - 23.0 °F 69% 30.15 in 10.0 mi Calm Calm - N/A   Clear
12:35 AM 32.0 °F 28.7 °F 23.0 °F 69% 30.15 in 10.0 mi NNW 3.5 mph - N/A   Clear
12:55 AM 32.0 °F 28.7 °F 23.0 °F 69% 30.14 in 10.0 mi NNW 3.5 mph - N/A   Clear
1:15 AM 32.0 °F - 23.0 °F 69% 30.15 in 10.0 mi Calm Calm - N/A   Clear
1:35 AM 30.2 °F - 23.0 °F 75% 30.15 in 10.0 mi Calm Calm - N/A   Clear
1:55 AM 28.4 °F - 24.8 °F 86% 30.15 in 10.0 mi Calm Calm - N/A   Clear
2:15 AM 30.2 °F - 23.0 °F 75% 30.16 in 10.0 mi Calm Calm - N/A   Clear
2:35 AM 28.4 °F - 23.0 °F 80% 30.16 in 10.0 mi Calm Calm - N/A   Clear
2:55 AM 28.4 °F - 24.8 °F 86% 30.16 in 10.0 mi Calm Calm - N/A   Clear
3:15 AM 28.4 °F - 24.8 °F 86% 30.16 in 10.0 mi Calm Calm - N/A   Clear
3:35 AM 30.2 °F - 24.8 °F 80% 30.16 in 10.0 mi Calm Calm - N/A   Clear
3:55 AM 26.6 °F - 23.0 °F 86% 30.15 in 10.0 mi Calm Calm - N/A   Clear
4:15 AM 26.6 °F - 24.8 °F 93% 30.15 in 10.0 mi Calm Calm - N/A   Clear
4:35 AM 26.6 °F - 24.8 °F 93% 30.15 in 10.0 mi Calm Calm - N/A   Clear
4:55 AM 26.6 °F - 23.0 °F 86% 30.16 in 10.0 mi Calm Calm - N/A   Mostly Cloudy
5:15 AM 26.6 °F - 23.0 °F 86% 30.17 in 10.0 mi Calm Calm - N/A   Scattered Clouds
5:35 AM 28.4 °F 24.6 °F 23.0 °F 80% 30.18 in 10.0 mi West 3.5 mph - N/A   Mostly Cloudy
5:55 AM 28.4 °F - 23.0 °F 80% 30.19 in 10.0 mi Calm Calm - N/A   Mostly Cloudy
6:15 AM 28.4 °F - 23.0 °F 80% 30.19 in 10.0 mi Calm Calm - N/A   Scattered Clouds
6:54 AM 26.6 °F - 23.0 °F 86% 30.21 in 20.0 mi Calm Calm - N/A   Partly Cloudy
7:52 AM 26.6 °F - 24.8 °F 93% 30.23 in 20.0 mi Calm Calm - N/A   Clear
8:52 AM 32.0 °F - 26.6 °F 80% 30.24 in 20.0 mi Calm Calm - N/A   Clear
9:52 AM 37.4 °F - 23.0 °F 56% 30.25 in 20.0 mi Calm Calm - N/A   Clear
10:57 AM 41.0 °F 37.1 °F 24.8 °F 53% 30.24 in 20.0 mi SSW 5.8 mph - N/A   Clear
11:52 AM 42.8 °F 39.3 °F 26.6 °F 53% 30.22 in 20.0 mi SSW 5.8 mph - N/A   Clear
12:52 PM 48.2 °F - 30.2 °F 50% 30.19 in 20.0 mi SSW 5.8 mph - N/A   Clear
1:52 PM 50.0 °F - 30.2 °F 47% 30.15 in 20.0 mi South 11.5 mph - N/A   Clear
2:52 PM 53.6 °F - 32.0 °F 44% 30.13 in 20.0 mi SSW 11.5 mph - N/A   Clear
3:52 PM 53.6 °F - 32.0 °F 44% 30.11 in 20.0 mi SSW 11.5 mph - N/A   Clear
6:35 PM 53.6 °F - 32.0 °F 44% 30.07 in 10.0 mi South 15.0 mph - N/A   Clear
6:55 PM 51.8 °F - 32.0 °F 47% 30.07 in 10.0 mi South 13.8 mph - N/A   Clear
7:15 PM 51.8 °F - 32.0 °F 47% 30.06 in 10.0 mi SSE 9.2 mph - N/A   Clear
7:35 PM 51.8 °F - 32.0 °F 47% 30.05 in 10.0 mi South 10.4 mph - N/A   Clear
7:55 PM 51.8 °F - 32.0 °F 47% 30.05 in 10.0 mi South 11.5 mph - N/A   Clear
8:15 PM 50.0 °F - 32.0 °F 50% 30.05 in 10.0 mi SSE 9.2 mph - N/A   Clear
8:35 PM 50.0 °F - 32.0 °F 50% 30.05 in 10.0 mi South 10.4 mph - N/A   Clear
8:55 PM 50.0 °F - 32.0 °F 50% 30.04 in 10.0 mi SSE 10.4 mph - N/A   Clear
9:15 PM 50.0 °F - 32.0 °F 50% 30.04 in 10.0 mi SSE 8.1 mph - N/A   Clear
9:35 PM 50.0 °F - 32.0 °F 50% 30.04 in 10.0 mi South 10.4 mph - N/A   Clear
9:55 PM 50.0 °F - 32.0 °F 50% 30.04 in 10.0 mi South 12.7 mph 16.1 mph N/A   Clear
10:15 PM 50.0 °F - 32.0 °F 50% 30.03 in 10.0 mi South 11.5 mph 18.4 mph N/A   Clear
10:35 PM 50.0 °F - 32.0 °F 50% 30.03 in 10.0 mi South 13.8 mph - N/A   Clear
10:55 PM 50.0 °F - 33.8 °F 54% 30.03 in 10.0 mi South 13.8 mph - N/A   Clear
11:15 PM 50.0 °F - 33.8 °F 54% 30.03 in 10.0 mi South 12.7 mph - N/A   Clear
11:35 PM 50.0 °F - 33.8 °F 54% 30.03 in 10.0 mi SSW 17.3 mph - N/A   Clear
11:55 PM 50.0 °F - 33.8 °F 54% 30.02 in 10.0 mi South 16.1 mph 21.9 mph N/A   Clear